Weather History for Dublin, VA

Change the Weather History Date:

Thursday, December 5, 2013

  Actual Average (KBCB) Record (KBCB)
Temperature  
Mean Temperature 53 °F 36 °F  
Max Temperature 64 °F 47 °F 70 °F (2001)
Min Temperature 42 °F 26 °F 2 °F (1974)
Degree Days  
Heating Degree Days 12 29  
Month to date heating degree days 140  
Since 1 July heating degree days 1320  
Cooling Degree Days 0 0  
Month to date cooling degree days 0  
Year to date cooling degree days 573  
Growing Degree Days 3 (Base 50)    
Moisture  
Dew Point 53 °F    
Average Humidity 94    
Maximum Humidity 100    
Minimum Humidity 77    
Precipitation  
Precipitation 0.03 in 0.10 in 2.69 in (1993)
Month to date precipitation 0.51  
Year to date precipitation 38.45  
Snow  
Snow 0.00 in - - ()
Month to date snowfall  
Since 1 July snowfall  
Snow Depth -    
Sea Level Pressure  
Sea Level Pressure 30.06 in    
Wind  
Wind Speed 1 mph (SSW)    
Max Wind Speed 10 mph    
Max Gust Speed -    
Visibility 8 miles    
Events Rain    
T = Trace of Precipitation, MM = Missing Value Source: NWS Daily Summary

Daily Weather History Graph

Daily Weather History Graph

Search for Another Location

Airport:

Trip Planner

Search our weather history database for the weather conditions in past years. The results will help you decide how hot, cold, wet, or windy it might be!

Date:

Astronomy

Dec. 05, 2013 Rise Set
Actual Time 7:21 AM EST 5:05 PM EST
Civil Twilight 6:52 AM EST 5:34 PM EST
Nautical Twilight 6:20 AM EST 6:06 PM EST
Astronomical Twilight 5:48 AM EST 6:37 PM EST
Moon 9:42 AM EST (12/5) 8:22 PM EST (12/5)
Length of Visible Light 10h 41m
Length of Day
9h 43m
Waxing Crescent, 10% of the Moon is Illuminated
Dec 5
Waxing Crescent
Dec 9
First Quarter
Dec 17
Full
Dec 25
Last Quarter
Jan 1
New

Hourly Weather History & Observations

Time (EST) Temp. Dew Point Humidity Pressure Visibility Wind Dir Wind Speed Gust Speed Precip Events Conditions
12:15 AM 48.2 °F 48.2 °F 100% 30.08 in 7.0 mi Calm Calm - N/A   Scattered Clouds
12:35 AM 48.2 °F 48.2 °F 100% 30.08 in 7.0 mi Calm Calm - N/A   Scattered Clouds
12:55 AM 50.0 °F 50.0 °F 100% 30.08 in 10.0 mi Calm Calm - N/A   Clear
1:15 AM 48.2 °F 48.2 °F 100% 30.07 in 5.0 mi Calm Calm - N/A   Clear
1:35 AM 48.2 °F 48.2 °F 100% 30.06 in 4.0 mi Calm Calm - N/A   Scattered Clouds
1:55 AM 48.2 °F 48.2 °F 100% 30.07 in - Calm Calm - N/A   Unknown
2:15 AM 46.4 °F 46.4 °F 100% 30.07 in - Calm Calm - N/A   Mostly Cloudy
2:35 AM 46.4 °F 46.4 °F 100% 30.07 in 3.0 mi Calm Calm - N/A   Overcast
2:55 AM 46.4 °F 46.4 °F 100% 30.07 in 2.5 mi Calm Calm - N/A   Overcast
3:15 AM 44.6 °F 44.6 °F 100% 30.07 in - Calm Calm - N/A   Mostly Cloudy
3:35 AM 44.6 °F 44.6 °F 100% 30.07 in - Calm Calm - N/A   Mostly Cloudy
3:55 AM 42.8 °F 42.8 °F 100% 30.07 in - Calm Calm - N/A   Mostly Cloudy
4:15 AM 44.6 °F 44.6 °F 100% 30.07 in - Calm Calm - N/A   Mostly Cloudy
4:35 AM 44.6 °F 44.6 °F 100% 30.06 in - Calm Calm - N/A   Overcast
4:55 AM 42.8 °F 42.8 °F 100% 30.07 in - Calm Calm - N/A   Unknown
5:15 AM 42.8 °F 42.8 °F 100% 30.07 in - Calm Calm - N/A   Unknown
5:35 AM 44.6 °F 44.6 °F 100% 30.08 in - Calm Calm - N/A   Unknown
5:55 AM 42.8 °F 42.8 °F 100% 30.09 in - Calm Calm - N/A   Unknown
6:15 AM 44.6 °F 44.6 °F 100% 30.09 in - Calm Calm - N/A   Unknown
6:35 AM 46.4 °F 46.4 °F 100% 30.09 in 3.0 mi Calm Calm - N/A   Overcast
6:55 AM 46.4 °F 46.4 °F 100% 30.09 in 3.0 mi Calm Calm - N/A   Overcast
7:15 AM 48.2 °F 48.2 °F 100% 30.10 in 3.0 mi Calm Calm - N/A   Overcast
7:35 AM 46.4 °F 46.4 °F 100% 30.10 in 3.0 mi Calm Calm - N/A   Overcast
7:55 AM 46.4 °F 46.4 °F 100% 30.11 in 2.5 mi Calm Calm - N/A   Mostly Cloudy
8:15 AM 46.4 °F 46.4 °F 100% 30.11 in 2.0 mi Calm Calm - N/A   Mostly Cloudy
8:35 AM 46.4 °F 46.4 °F 100% 30.11 in 3.0 mi Calm Calm - N/A   Mostly Cloudy
8:55 AM 46.4 °F 46.4 °F 100% 30.12 in 1.2 mi Calm Calm - N/A   Mostly Cloudy
9:15 AM 48.2 °F 48.2 °F 100% 30.12 in 1.8 mi Calm Calm - N/A   Mostly Cloudy
9:35 AM 50.0 °F 50.0 °F 100% 30.12 in 2.5 mi Calm Calm - N/A   Mostly Cloudy
9:55 AM 51.8 °F 51.8 °F 100% 30.11 in 2.5 mi Calm Calm - N/A   Overcast
10:15 AM 53.6 °F 53.6 °F 100% 30.10 in 3.0 mi Calm Calm - N/A   Overcast
10:35 AM 53.6 °F 53.6 °F 100% 30.10 in 4.0 mi Calm Calm - N/A   Mostly Cloudy
10:55 AM 53.6 °F 53.6 °F 100% 30.10 in 5.0 mi Calm Calm - N/A   Scattered Clouds
11:15 AM 53.6 °F 53.6 °F 100% 30.09 in 5.0 mi Calm Calm - N/A   Clear
11:35 AM 55.4 °F 55.4 °F 100% 30.08 in 7.0 mi Calm Calm - N/A   Clear
11:55 AM 55.4 °F 55.4 °F 100% 30.08 in 10.0 mi Calm Calm - N/A   Clear
12:15 PM 57.2 °F 57.2 °F 100% 30.07 in 10.0 mi Calm Calm - N/A   Clear
12:35 PM 60.8 °F 59.0 °F 94% 30.07 in 10.0 mi SW 3.5 mph - N/A   Clear
12:55 PM 62.6 °F 57.2 °F 82% 30.06 in 10.0 mi WSW 4.6 mph - N/A   Clear
1:15 PM 62.6 °F 57.2 °F 82% 30.06 in 10.0 mi Calm Calm - N/A   Scattered Clouds
1:35 PM 62.6 °F 57.2 °F 82% 30.05 in 10.0 mi Calm Calm - N/A   Scattered Clouds
1:55 PM 64.4 °F 57.2 °F 77% 30.04 in 10.0 mi Calm Calm - N/A   Clear
2:15 PM 64.4 °F 57.2 °F 77% 30.03 in 10.0 mi South 3.5 mph - N/A   Clear
2:35 PM 64.4 °F 57.2 °F 77% 30.03 in 10.0 mi Calm Calm - N/A   Scattered Clouds
2:55 PM 64.4 °F 57.2 °F 77% 30.03 in 10.0 mi Calm Calm - N/A   Clear
3:15 PM 64.4 °F 57.2 °F 77% 30.03 in 10.0 mi Calm Calm - N/A   Clear
3:35 PM 62.6 °F 55.4 °F 77% 30.03 in 10.0 mi Calm Calm - N/A   Clear
3:55 PM 62.6 °F 55.4 °F 77% 30.02 in 10.0 mi Calm Calm - N/A   Clear
4:15 PM 62.6 °F 55.4 °F 77% 30.03 in 10.0 mi Calm Calm - N/A   Scattered Clouds
4:35 PM 60.8 °F 55.4 °F 82% 30.03 in 10.0 mi Calm Calm - N/A   Mostly Cloudy
4:55 PM 60.8 °F 55.4 °F 82% 30.04 in 10.0 mi Calm Calm - N/A   Mostly Cloudy
5:15 PM 62.6 °F 57.2 °F 82% 30.04 in 10.0 mi South 4.6 mph - N/A   Scattered Clouds
5:35 PM 60.8 °F 57.2 °F 88% 30.04 in 10.0 mi South 4.6 mph - N/A   Clear
5:55 PM 60.8 °F 57.2 °F 88% 30.05 in 10.0 mi South 3.5 mph - N/A   Mostly Cloudy
6:15 PM 60.8 °F 57.2 °F 88% 30.06 in 10.0 mi South 4.6 mph - N/A   Mostly Cloudy
6:35 PM 60.8 °F 57.2 °F 88% 30.05 in 10.0 mi SSW 5.8 mph - N/A   Mostly Cloudy
6:55 PM 60.8 °F 59.0 °F 94% 30.05 in 10.0 mi SSW 5.8 mph - N/A   Mostly Cloudy
7:15 PM 60.8 °F 59.0 °F 94% 30.05 in 10.0 mi SSW 5.8 mph - N/A   Mostly Cloudy
7:35 PM 60.8 °F 59.0 °F 94% 30.04 in 10.0 mi South 4.6 mph - N/A   Overcast
7:55 PM 60.8 °F 59.0 °F 94% 30.04 in 10.0 mi South 5.8 mph - N/A   Overcast
8:15 PM 62.6 °F 60.8 °F 94% 30.04 in 10.0 mi South 5.8 mph - N/A   Overcast
8:35 PM 62.6 °F 60.8 °F 94% 30.04 in 10.0 mi South 8.1 mph - N/A   Overcast
8:55 PM 62.6 °F 60.8 °F 94% 30.02 in 10.0 mi South 4.6 mph - N/A   Overcast
9:15 PM 60.8 °F 59.0 °F 94% 30.01 in 10.0 mi South 9.2 mph - N/A   Overcast
9:35 PM 62.6 °F 60.8 °F 94% 30.04 in 10.0 mi SSW 10.4 mph - N/A   Overcast
9:55 PM 62.6 °F 60.8 °F 94% 30.03 in 10.0 mi SSW 8.1 mph - N/A   Light Drizzle
10:15 PM 60.8 °F 60.8 °F 100% 30.02 in 10.0 mi SSW 6.9 mph - N/A Rain Light Rain
10:35 PM 60.8 °F 60.8 °F 100% 30.02 in 10.0 mi South 5.8 mph - N/A Rain Light Rain
10:55 PM 60.8 °F 60.8 °F 100% 30.02 in 7.0 mi SSW 8.1 mph - 0.02 in Rain Rain
11:15 PM 60.8 °F 60.8 °F 100% 30.02 in 10.0 mi South 9.2 mph - 0.01 in Rain Rain
11:35 PM 60.8 °F 60.8 °F 100% 30.02 in 10.0 mi SSW 6.9 mph - N/A   Overcast
11:55 PM 60.8 °F 60.8 °F 100% 30.02 in 10.0 mi SSW 6.9 mph - N/A   Overcast